sat.trackr.live / text

‹ back to catalog

STARLINK-4724

NORAD 53702 · 2022-107C

PAYLOAD ACTIVE UNKNOWN

§ Identity

Operator
Country
US
Launch date
2022-09-05
Launch site
AFETR
Launch vehicle
Mass (kg)
RCS (m²)

Purposes: comms

External: N2YO · Heavens-Above · Gunter

§ Orbital elements

Epoch: 2026-09-20T04:16:24.106656Z

Period
93.78 min
Inclination
53.1602°
Eccentricity
0.0001240
Mean motion
15.35433825 rev/d
Perigee alt
458.8 km
Apogee alt
460.5 km
Semi-major
6,837.8 km
B*
-2.2516e-4
RAAN
63.5800°
Arg perigee
79.6931°
Mean anomaly
280.4212°
Rev number
22,462

§ Raw data

STARLINK-47241 53702U 22107C   26263.17805679 -.00008234  00000+0 -22516-3 0  99982 53702  53.1602  63.5800 0001240  79.6931 280.4212 15.35433825224624

JSON: /api/v1/satellites/53702 · /tle

For live sub-satellite position, see the globe view (requires WebGL).

§ Visibility from observer

Set your observer location to see the next 7 days of passes ≥ 10°. The values pass through the URL so the page stays shareable.

No JS? Fill the form by hand. The geolocation button needs JavaScript.